• In Lithuania
  • List of Countries
  • For 7 days
  • Water Temperature
  • Satellite Maps
  • Weather Map
  • Weather Widgets
  • user-avatar
    Login

    Hourly Weather Loja

    Today, 23 November, Thursday

    Time Temperature Precipitation Wind Pressure Humidity
    00:00 +12°C° 0 mm 1 mps 709 mmHg 29%
    01:00 +12°C° 0 mm 1 mps 709 mmHg 28%
    02:00 +12°C° 0 mm 1 mps 709 mmHg 27%
    03:00 +12°C° 0 mm 1 mps 709 mmHg 26%
    04:00 +12°C° 0 mm 1 mps 710 mmHg 26%
    05:00 +12°C° 0 mm 1 mps 710 mmHg 27%
    06:00 +11°C° 0 mm 1 mps 710 mmHg 30%
    07:00 +13°C° 0 mm 1 mps 711 mmHg 30%
    08:00 +14°C° 0 mm 1 mps 711 mmHg 29%
    09:00 +16°C° 0 mm 1 mps 712 mmHg 29%
    10:00 +19°C° 0 mm 1 mps 712 mmHg 28%
    11:00 +20°C° 0 mm 1 mps 712 mmHg 26%
    12:00 +22°C° 0 mm 1 mps 712 mmHg 24%
    13:00 +22°C° 0 mm 1 mps 712 mmHg 25%
    14:00 +22°C° 0 mm 1 mps 712 mmHg 25%
    15:00 +22°C° 0 mm 1 mps 712 mmHg 25%
    16:00 +20°C° 0 mm 1 mps 712 mmHg 30%
    17:00 +18°C° 0 mm 1 mps 712 mmHg 34%
    18:00 +15°C° 0 mm 1 mps 712 mmHg 38%
    19:00 +15°C° 0 mm 1 mps 712 mmHg 38%
    20:00 +15°C° 0 mm 1 mps 712 mmHg 38%
    21:00 +14°C° 0 mm 1 mps 712 mmHg 39%
    22:00 +14°C° 0 mm 1 mps 712 mmHg 38%
    23:00 +14°C° 0 mm 1 mps 712 mmHg 38%

    Tomorrow, 24 November, Friday

    Time Temperature Precipitation Wind Pressure Humidity
    00:00 +14°C° 0 mm 1 mps 712 mmHg 38%
    01:00 +13°C° 0 mm 1 mps 712 mmHg 37%
    02:00 +13°C° 0 mm 1 mps 712 mmHg 37%
    03:00 +13°C° 0 mm 1 mps 711 mmHg 37%
    04:00 +12°C° 0 mm 1 mps 712 mmHg 37%
    05:00 +12°C° 0 mm 1 mps 712 mmHg 37%
    06:00 +12°C° 0 mm 1 mps 712 mmHg 37%
    07:00 +14°C° 0 mm 1 mps 712 mmHg 35%
    08:00 +15°C° 0 mm 1 mps 712 mmHg 33%
    09:00 +16°C° 0 mm 1 mps 713 mmHg 31%
    10:00 +19°C° 0 mm 1 mps 713 mmHg 28%
    11:00 +21°C° 0 mm 1 mps 713 mmHg 26%
    12:00 +22°C° 0 mm 1 mps 713 mmHg 23%
    13:00 +22°C° 0 mm 1 mps 713 mmHg 23%
    14:00 +21°C° 0 mm 2 mps 713 mmHg 23%
    15:00 +23°C° 0 mm 2 mps 712 mmHg 24%
    16:00 +21°C° 0 mm 1 mps 712 mmHg 28%
    17:00 +19°C° 0 mm 1 mps 712 mmHg 32%
    18:00 +16°C° 0 mm 1 mps 712 mmHg 36%
    19:00 +15°C° 0 mm 1 mps 712 mmHg 36%
    20:00 +15°C° 0 mm 1 mps 712 mmHg 37%
    21:00 +14°C° 0 mm 1 mps 712 mmHg 38%
    22:00 +14°C° 0 mm 1 mps 712 mmHg 38%
    23:00 +14°C° 0 mm 1 mps 712 mmHg 37%

    Day after tomorrow, 25 November, Saturday

    Time Temperature Precipitation Wind Pressure Humidity
    00:00 +14°C° 0 mm 1 mps 712 mmHg 37%
    01:00 +13°C° 0 mm 1 mps 712 mmHg 37%
    02:00 +13°C° 0 mm 1 mps 712 mmHg 37%
    03:00 +13°C° 0 mm 1 mps 712 mmHg 37%
    04:00 +13°C° 0 mm 1 mps 712 mmHg 36%
    05:00 +13°C° 0 mm 1 mps 712 mmHg 36%
    06:00 +13°C° 0 mm 1 mps 712 mmHg 35%
    07:00 +14°C° 0 mm 1 mps 712 mmHg 34%
    08:00 +16°C° 0 mm 1 mps 713 mmHg 33%
    09:00 +18°C° 0 mm 1 mps 713 mmHg 31%
    10:00 +20°C° 0 mm 1 mps 713 mmHg 28%
    11:00 +21°C° 0 mm 1 mps 713 mmHg 24%
    12:00 +23°C° 0 mm 1 mps 714 mmHg 21%
    13:00 +23°C° 0 mm 1 mps 713 mmHg 21%
    14:00 +23°C° 0 mm 1 mps 713 mmHg 22%
    15:00 +23°C° 0 mm 1 mps 713 mmHg 22%
    16:00 +21°C° 0 mm 1 mps 713 mmHg 25%
    17:00 +19°C° 0 mm 1 mps 713 mmHg 28%
    18:00 +18°C° 0 mm 1 mps 713 mmHg 31%
    19:00 +16°C° 0 mm 1 mps 713 mmHg 32%
    20:00 +16°C° 0 mm 1 mps 713 mmHg 32%
    21:00 +16°C° 0 mm 1 mps 714 mmHg 32%
    22:00 +16°C° 0 mm 1 mps 714 mmHg 32%
    23:00 +15°C° 0 mm 1 mps 714 mmHg 32%

    26 November, Sunday

    Time Temperature Precipitation Wind Pressure Humidity
    00:00 +15°C° 0 mm 1 mps 714 mmHg 31%
    01:00 +15°C° 0 mm 1 mps 714 mmHg 32%
    02:00 +15°C° 0 mm 1 mps 713 mmHg 32%
    03:00 +15°C° 0 mm 1 mps 713 mmHg 32%
    04:00 +15°C° 0 mm 1 mps 714 mmHg 33%
    05:00 +15°C° 0 mm 1 mps 714 mmHg 34%
    06:00 +14°C° 0 mm 1 mps 714 mmHg 34%
    07:00 +15°C° 0 mm 1 mps 714 mmHg 34%
    08:00 +16°C° 0 mm 1 mps 715 mmHg 34%
    09:00 +18°C° 0 mm 1 mps 715 mmHg 34%
    10:00 +19°C° 0 mm 1 mps 716 mmHg 34%
    11:00 +19°C° 0 mm 2 mps 716 mmHg 33%
    12:00 +20°C° 0 mm 2 mps 716 mmHg 33%
    13:00 +20°C° 0 mm 2 mps 716 mmHg 37%
    14:00 +20°C° 0 mm 2 mps 715 mmHg 40%
    15:00 +19°C° 0 mm 2 mps 715 mmHg 44%
    16:00 +18°C° 0.1 mm 2 mps 715 mmHg 52%
    17:00 +17°C° 0.1 mm 2 mps 715 mmHg 60%
    18:00 +15°C° 0.1 mm 2 mps 715 mmHg 69%
    19:00 +15°C° 0 mm 2 mps 715 mmHg 72%
    20:00 +14°C° 0 mm 2 mps 715 mmHg 76%
    21:00 +14°C° 0 mm 2 mps 715 mmHg 79%
    22:00 +14°C° 0 mm 2 mps 715 mmHg 82%
    23:00 +13°C° 0 mm 2 mps 715 mmHg 84%

    27 November, Monday

    Time Temperature Precipitation Wind Pressure Humidity
    00:00 +13°C° 0 mm 2 mps 715 mmHg 86%
    01:00 +13°C° 0.1 mm 2 mps 715 mmHg 84%
    02:00 +13°C° 0.1 mm 2 mps 714 mmHg 83%
    03:00 +13°C° 0.1 mm 2 mps 714 mmHg 82%
    04:00 +13°C° 0 mm 2 mps 714 mmHg 82%
    05:00 +13°C° 0 mm 2 mps 714 mmHg 82%
    06:00 +13°C° 0 mm 2 mps 714 mmHg 83%
    07:00 +13°C° 0.1 mm 2 mps 714 mmHg 81%
    08:00 +14°C° 0.1 mm 2 mps 714 mmHg 79%
    09:00 +14°C° 0.1 mm 2 mps 715 mmHg 77%
    10:00 +15°C° 0.4 mm 2 mps 715 mmHg 76%
    11:00 +15°C° 0.4 mm 1 mps 714 mmHg 75%
    12:00 +15°C° 0.4 mm 1 mps 714 mmHg 74%
    13:00 +15°C° 0.4 mm 2 mps 714 mmHg 72%
    14:00 +16°C° 0.4 mm 2 mps 713 mmHg 71%
    15:00 +16°C° 0.4 mm 2 mps 713 mmHg 70%
    16:00 +15°C° 0.5 mm 2 mps 713 mmHg 73%
    17:00 +15°C° 0.5 mm 2 mps 713 mmHg 76%
    18:00 +14°C° 0.5 mm 1 mps 713 mmHg 80%
    19:00 +14°C° 0.2 mm 2 mps 713 mmHg 80%
    20:00 +13°C° 0.2 mm 2 mps 713 mmHg 80%
    21:00 +13°C° 0.2 mm 2 mps 713 mmHg 80%
    22:00 +13°C° 0.1 mm 2 mps 713 mmHg 80%
    23:00 +13°C° 0.1 mm 2 mps 712 mmHg 79%

    28 November, Tuesday

    Time Temperature Precipitation Wind Pressure Humidity
    00:00 +13°C° 0.1 mm 2 mps 712 mmHg 79%
    01:00 +13°C° 0 mm 2 mps 712 mmHg 79%
    02:00 +13°C° 0 mm 2 mps 711 mmHg 80%
    03:00 +13°C° 0 mm 2 mps 711 mmHg 80%
    04:00 +13°C° 0 mm 2 mps 711 mmHg 80%
    05:00 +13°C° 0 mm 2 mps 710 mmHg 79%
    06:00 +13°C° 0 mm 2 mps 710 mmHg 79%
    07:00 +13°C° 0.2 mm 2 mps 710 mmHg 78%
    08:00 +14°C° 0.2 mm 2 mps 710 mmHg 77%
    09:00 +14°C° 0.2 mm 2 mps 710 mmHg 76%
    10:00 +14°C° 0.7 mm 2 mps 710 mmHg 74%
    11:00 +15°C° 0.7 mm 2 mps 709 mmHg 73%
    12:00 +15°C° 0.7 mm 2 mps 709 mmHg 71%
    13:00 +14°C° 2.1 mm 2 mps 708 mmHg 76%
    14:00 +14°C° 2.1 mm 2 mps 707 mmHg 80%
    15:00 +13°C° 2.1 mm 2 mps 707 mmHg 85%
    16:00 +13°C° 1.7 mm 2 mps 707 mmHg 87%
    17:00 +13°C° 1.7 mm 2 mps 706 mmHg 88%
    18:00 +13°C° 1.7 mm 2 mps 706 mmHg 90%
    19:00 +13°C° 0.6 mm 2 mps 706 mmHg 90%
    20:00 +13°C° 0.6 mm 2 mps 706 mmHg 91%
    21:00 +13°C° 0.6 mm 2 mps 706 mmHg 91%
    22:00 +13°C° 0.3 mm 2 mps 705 mmHg 92%
    23:00 +13°C° 0.3 mm 2 mps 705 mmHg 92%
    Show more